Location: Cedar Valley Lake
(37.8434°N, 89.9851°W)
Time: 04:57:30
(UTC+00:00)

Daily predictions for brighter satellites

Satellite Brightness Start Highest point End
(mag) Time Altitude Azimuth Time Altitude Azimuth Time Altitude Azimuth
Cosmos 1470 Rocket 3.6 01:59:12 10° N 02:03:31 63° E 02:07:47 10° SSE
Cosmos 1470 3.5 02:02:43 10° NNE 02:06:05 32° ENE 02:09:26 10° SE
Cosmos 1626 4.3 02:03:28 10° SW 02:06:07 24° WNW 02:08:47 10° NNW
Cosmos 540 Rocket 4.0 02:01:23 10° N 02:06:17 43° ENE 02:11:09 10° SE
Okean O Rocket 1.6 02:02:05 10° SSE 02:06:28 79° ENE 02:10:51 10° N
Cosmos 1553 Rocket 4.4 02:01:06 10° N 02:07:04 47° E 02:13:06 10° SSE
Lacrosse 5 rocket 4.3 02:06:57 10° WSW 02:07:17 10° WSW 02:07:35 10° WSW
IRIDIUM 106 4.4 02:02:10 10° N 02:07:20 60° E 02:12:28 10° SSE
USA 186 3.2 02:06:24 10° S 02:09:33 40° W 02:12:42 10° NNW
KORONAS-FOTON 3.7 02:06:08 10° S 02:09:47 65° E 02:13:30 10° NNE
Cosmos 1666 Rocket 4.5 02:06:23 10° NNW 02:10:35 49° W 02:14:47 10° SSW
Cosmos 1842 3.0 02:12:47 10° S 02:16:26 88° E 02:20:06 10° N
CZ-4B R/B 3.8 02:12:21 10° S 02:17:30 54° W 02:22:43 10° NNW
SeaSat 1 4.0 02:18:16 10° ESE 02:22:03 23° NE 02:25:52 10° N
Tiangong -2.2 02:19:23 10° WNW 02:22:33 82° SSW 02:24:57 16° ESE
CZ-4 R/B 3.8 02:20:40 10° SW 02:23:41 21° W 02:26:47 10° NW
Cosmos 1954 Rocket 4.3 02:20:14 10° SSW 02:25:31 74° WNW 02:30:48 10° NNE
SPOT 5 3.1 02:22:14 13° SE 02:25:44 42° ENE 02:29:52 10° N
Cosmos 1933 Rocket 3.7 02:23:18 10° N 02:27:42 58° E 02:31:33 13° SSE
SL-24 R/B 4.4 02:24:45 10° S 02:29:40 73° WSW 02:33:58 10° NNW
In-Cosmos 22 4.3 02:26:16 10° S 02:31:47 57° E 02:37:12 10° NNE
Cosmos 2360 Rocket 3.9 02:28:52 10° N 02:32:54 19° NE 02:36:45 10° E
Cosmos 676 Rocket 4.3 02:32:00 10° SSW 02:37:18 72° WNW 02:42:37 10° NNE
Resurs 01 Rocket 3.1 02:33:29 10° SSW 02:37:28 33° W 02:41:29 10° NNW
Cosmos 1707 3.0 02:34:42 10° SSW 02:38:16 61° W 02:41:51 10° N
ASTRO E2 3.7 02:39:08 10° SW 02:41:51 21° SSE 02:42:09 21° SSE
SL-16 R/B 2.6 02:40:05 10° NNW 02:45:34 49° ENE 02:49:14 20° SE
RESURS DK-1 3.6 02:44:02 10° N 02:47:32 27° ENE 02:49:28 19° ESE
Cosmos 2333 Rocket 3.7 02:45:07 10° N 02:49:44 24° NE 02:53:10 15° E
SJ 16-02 2.6 02:50:25 21° ESE 02:51:04 22° E 02:54:23 10° NE
Meteor 1-15 Rocket 4.4 02:47:06 10° N 02:52:34 54° ENE 02:56:03 22° SSE
ERS-1 Rocket 3.2 02:49:41 21° SE 02:52:53 54° ENE 02:57:47 10° N
Cosmos 1707 Rocket 4.4 02:53:33 24° SE 02:55:19 34° E 02:59:19 10° NNE
CZ-4C R/B 4.1 02:52:45 10° N 02:56:49 55° WNW 03:00:48 10° SSW
Cosmos 1758 4.4 02:54:02 10° NNE 02:57:29 29° ENE 02:58:34 25° ESE
Terra 2.1 02:56:42 25° SE 02:59:14 51° ENE 03:03:48 10° N
MetOp-B 4.2 02:55:24 17° S 02:59:38 82° WSW 03:05:01 10° NNW
SL-27 R/B 2.3 02:59:50 39° E 02:59:50 39° E 03:02:16 10° NNE
Cosmos 841 Rocket 3.7 02:54:32 10° N 02:59:43 57° ENE 03:02:35 26° SE
Atlas Centaur 2 3.4 02:52:13 10° WSW 02:59:52 48° S 03:05:10 21° SE
Spot 2 Rocket 3.7 03:04:15 27° SE 03:06:52 55° ENE 03:11:49 10° N
USA 234 3.5 03:00:26 10° NE 03:06:57 74° NW 03:13:26 10° SW
Aureole 3 4.4 03:06:44 26° E 03:07:18 27° E 03:11:04 10° NNE
Cosmos 2315 Rocket 4.3 03:02:59 10° N 03:09:12 53° E 03:12:38 26° SE
Cosmos 1300 3.1 03:09:32 10° N 03:12:54 39° E 03:13:23 37° E
IRS-1A Rocket 4.4 03:14:34 21° S 03:18:16 70° WSW 03:23:46 10° NNW
Cosmos 1400 Rocket 3.4 03:15:07 14° SSW 03:18:19 53° W 03:22:07 10° N
ARGOS Delta rocket 4.4 03:15:40 18° SSW 03:18:47 47° W 03:23:03 10° NNW
Cosmos 1441 Rocket 4.3 03:15:54 10° NNW 03:19:15 36° W 03:21:16 20° SSW
Okean 1-7 4.3 03:19:45 24° E 03:19:49 24° E 03:23:17 10° NE
Meteor 1-4 Rocket 4.0 03:21:00 19° ENE 03:21:00 19° ENE 03:22:22 10° NE
Cosmos 1733 Rocket 3.6 03:15:45 10° N 03:19:59 43° E 03:21:04 36° ESE
Okean-O 4.4 03:20:34 10° SSW 03:24:15 26° W 03:27:57 10° NW
ATLAS CENTAUR R/B 2.3 03:20:59 10° SW 03:24:17 40° NW 03:27:39 10° NNE
Cosmos 1356 Rocket 3.3 03:22:33 33° S 03:24:23 86° E 03:28:36 10° N
Cosmos 2322 Rocket 2.3 03:22:09 10° NNW 03:27:49 68° ENE 03:30:11 36° SE
Meteor 2-10 Rocket 3.5 03:24:18 10° N 03:29:49 88° E 03:32:12 34° S
Meteor 1-12 Rocket 4.3 03:23:48 10° N 03:29:51 88° E 03:32:55 31° S
Okean 2 4.5 03:30:42 28° E 03:30:42 28° E 03:33:49 10° NNE
Meteor 1-22 Rocket 4.5 03:24:47 10° NNW 03:30:28 70° W 03:33:59 25° S
Ariane Rocket 2.9 03:29:26 35° SSE 03:31:38 89° ENE 03:36:45 10° NNW
USA 245 3.7 03:32:06 38° SSW 03:33:03 50° W 03:37:03 10° NNW
Cosmos 1315 Rocket 3.5 03:38:28 38° E 03:38:28 38° E 03:41:53 10° NNE
Cosmos 1953 3.8 03:38:36 10° NNE 03:41:18 22° ENE 03:41:18 22° ENE
Cosmos 2228 Rocket 3.6 03:39:24 26° SSW 03:41:50 60° W 03:46:22 10° N
Landsat 4 3.7 03:45:44 57° WSW 03:45:56 59° W 03:49:20 10° NNW
Cosmos 1241 Rocket 4.3 03:40:34 10° SSW 03:46:43 89° SE 03:52:59 10° NNE
BlueWalker 3 2.7 03:48:25 39° ENE 03:48:25 39° ENE 03:50:54 10° NE
Meteor 1-21 4.4 03:45:53 25° SSW 03:49:24 73° W 03:55:14 10° N
MOS 1 Rocket 3.9 03:47:04 33° SSW 03:49:26 62° W 03:54:43 10° NNW
ATLAS 2AS CENTAUR R/B 2.7 03:44:27 10° NNW 03:51:11 66° NE 03:53:50 38° SE
Cosmos 2219 Rocket 2.9 03:46:39 10° N 03:52:02 42° ENE 03:53:40 34° E
COSMOS 2428 4.4 03:50:24 10° N 03:54:42 21° NE 03:56:49 18° E
USA 281 4.3 03:54:58 23° E 03:57:54 33° ENE 04:03:36 10° N
Tiangong 0.8 03:57:02 10° WSW 03:57:06 10° WSW 03:57:06 10° WSW
SeaSat 1 3.1 03:57:51 36° SSW 03:59:12 46° WSW 04:03:55 10° NW
Cosmos 968 Rocket 4.3 03:55:15 14° SW 03:59:27 49° WNW 04:04:29 10° N
MetOp-A 4.0 04:00:19 55° SSE 04:01:29 80° ENE 04:06:45 10° N
SPOT 3 Rocket 4.1 04:00:42 35° SSW 04:02:28 50° W 04:07:29 10° NNW
Landsat 5 4.1 04:04:01 10° N 04:07:59 52° WNW 04:08:59 41° WSW
Cosmos 1346 Rocket 3.7 04:07:19 10° NNW 04:10:55 39° W 04:11:07 38° WSW
Cosmos 1455 3.3 04:07:34 10° N 04:09:56 34° NE 04:09:56 34° NE
Cosmos 1703 Rocket 3.7 04:11:48 61° ENE 04:11:48 61° ENE 04:15:57 10° NNE
Okean 3 4.3 04:10:42 38° WSW 04:11:36 44° W 04:15:36 10° N
Cosmos 1814 Rocket 3.9 04:11:49 10° NNW 04:17:10 85° WSW 04:17:57 65° S
Cosmos 2360 Rocket 2.4 04:11:43 10° NNW 04:17:18 60° WSW 04:18:30 49° SSW
H-2A R/B 4.2 04:22:37 23° ENE 04:22:37 23° ENE 04:25:45 10° NNE
RESURS DK-1 4.2 04:22:00 10° NW 04:25:03 21° WSW 04:25:03 21° WSW
COSMOS 2455 3.0 04:27:48 52° ESE 04:27:48 52° ESE 04:33:36 10° NE
SJ 16-02 3.1 04:27:07 19° WSW 04:29:13 28° WNW 04:32:57 10° N
SL-16 R/B 3.9 04:25:06 10° NW 04:29:14 21° W 04:31:06 18° SW
Cosmos 839 Rocket 3.9 04:23:20 10° NNW 04:29:58 86° ENE 04:31:15 59° SE
Cosmos 2333 Rocket 2.7 04:28:44 10° NW 04:34:13 47° WSW 04:35:10 43° SW
Terra 4.1 04:35:24 12° WSW 04:37:05 14° W 04:39:37 10° WNW
CZ-3 Stage 3 4.0 03:58:51 10° W 04:39:23 61° SSW 04:43:32 40° SE
CZ-2C R/B 3.8 04:37:49 10° N 04:42:01 70° NW 04:42:01 70° NW
CENTAUR R/B 4.2 04:46:01 15° E 04:46:01 15° E 04:47:57 10° ENE
Atlas Centaur 2 3.9 04:41:38 10° W 04:47:22 29° SW 04:47:22 29° SW
Cosmos 371 Rocket 3.9 04:49:55 45° ENE 04:49:55 45° ENE 04:53:34 10° NNE
Cosmos 1709 Rocket 4.1 04:48:29 58° ESE 04:49:07 61° E 04:55:23 10° NNE
DNEPR-1 R/B 4.0 04:45:10 10° NW 04:51:22 73° WSW 04:51:28 73° SW
ARIANE 5 R/B 2.9 04:53:07 62° NNW 04:53:07 62° NNW 04:56:45 10° NNW
Cosmos 2237 Rocket 3.8 04:48:17 10° N 04:52:51 24° ENE 04:54:20 22° E
Cosmos 2227 Rocket 3.8 04:55:36 22° E 04:55:36 22° E 04:58:40 10° NE
Cosmos 2322 3.5 04:51:17 10° NNW 04:56:59 83° ENE 04:57:14 80° ESE
CZ-4C R/B 2.2 04:58:36 55° NE 04:58:36 55° NE 05:02:44 10° NNE
Meteor 1-24 Rocket 4.2 04:58:53 49° E 04:58:53 49° E 05:04:09 10° NNE
Cosmos 1375 Rocket 4.4 05:00:08 10° NNW 05:06:43 74° WSW 05:07:21 68° SSW
Cosmos 1486 Rocket 4.0 05:09:52 75° WNW 05:09:52 75° WNW 05:14:57 10° NNE
Cosmos 2322 Rocket 4.3 05:08:10 10° WNW 05:11:10 15° W 05:11:59 14° WSW
GP-B 4.3 05:09:22 10° NNW 05:13:05 36° WNW 05:13:05 36° WNW
Cosmos 2297 Rocket 2.2 05:14:19 70° ENE 05:14:19 70° ENE 05:19:33 10° NNE
Cosmos 1782 Rocket 4.4 05:11:15 10° NNW 05:14:31 45° NW 05:14:31 45° NW
Spot 4 4.1 05:17:30 67° N 05:17:30 67° N 05:21:42 10° N
Cosmos 1354 Rocket 4.3 05:26:08 59° ENE 05:26:08 59° ENE 05:30:39 10° NNE
H-2A R/B 3.9 05:24:18 10° NE 05:26:17 22° NE 05:26:17 22° NE
Cosmos 2098 Rocket 3.9 05:26:21 10° N 05:32:57 71° E 05:33:21 69° ESE
Cosmos 2219 Rocket 3.7 05:31:09 10° NW 05:35:22 25° W 05:35:22 25° W
Cosmos 304 Rocket 4.4 05:36:40 52° NW 05:36:40 52° NW 05:40:48 10° N
Meteor 2-5 Rocket 3.7 05:36:02 77° W 05:36:11 78° W 05:42:04 10° N
COSMOS 2428 3.1 05:33:43 10° NNW 05:38:48 53° W 05:38:48 53° W
ATLAS 2AS CENTAUR R/B 4.1 05:36:41 10° WNW 05:41:14 21° WSW 05:41:14 21° WSW
USA 281 3.6 05:41:51 45° WSW 05:42:09 46° WSW 05:48:26 10° NW
Cosmos 332 Rocket 4.5 05:43:54 49° NE 05:43:54 49° NE 05:47:36 10° NNE
ALOS 2 3.5 05:44:00 46° NNW 05:44:00 46° NNW 05:47:10 10° NNW
Cosmos 2263 Rocket 3.8 05:47:05 22° E 05:47:05 22° E 05:50:22 10° NE
Okean 2 Rocket 4.1 05:43:55 10° N 05:47:13 42° NE 05:47:13 42° NE
H-2A R/B 4.4 05:58:35 23° WNW 05:58:35 23° WNW 06:00:48 10° NW
Cosmos 2181 Rocket 3.8 05:52:22 10° N 05:58:34 90° NE 05:58:44 86° S
Cosmos 2221 Rocket 4.5 06:04:28 48° N 06:04:28 48° N 06:07:43 10° N
Cosmos 2074 Rocket 3.8 06:03:57 79° ESE 06:04:09 81° E 06:10:22 10° N
Cosmos 990 Rocket 4.4 06:08:04 56° NE 06:08:04 56° NE 06:12:17 10° NNE
SL-12 R/B(2) 4.1 06:07:20 60° SSW 06:09:05 83° ESE 06:18:21 10° NE
Cosmos 1825 4.5 06:18:44 21° N 06:18:44 21° N 06:20:00 10° N
SL-4 R/B 3.8 06:23:25 10° NW 06:25:23 27° NW 06:25:23 27° NW
SL-16 R/B 3.0 06:25:18 10° N 06:30:45 45° ENE 06:32:00 39° E
Cosmos 1538 Rocket 4.4 06:26:47 10° N 06:31:54 54° ENE 06:32:02 54° ENE
CENTAUR R/B 2.5 06:33:07 58° W 06:33:45 62° NW 06:40:22 10° NNE
Cosmos 1295 Rocket 4.5 06:35:50 63° W 06:36:07 64° W 06:42:12 10° N
Cosmos 2082 3.8 06:36:51 62° E 06:36:51 62° E 06:42:07 10° NNE
Cosmos 2237 Rocket 2.9 06:31:43 10° NW 06:36:08 42° WNW 06:36:08 42° WNW
Cosmos 2227 Rocket 2.9 06:37:23 42° W 06:37:57 44° WNW 06:43:22 10° N
GEOS 3 Rocket 3.9 06:35:42 10° NNE 06:40:44 55° NW 06:41:02 54° WNW
Meteor 2-11 Rocket 4.3 06:44:03 70° WSW 06:44:22 72° W 06:50:28 10° N
CZ-2D R/B 4.2 06:41:51 10° ENE 06:44:40 14° E 06:45:38 14° ESE
Nadezhda 3 Rocket 3.8 06:39:12 10° N 06:45:28 85° W 06:45:55 77° SSW
Okean 1 Rocket 4.2 06:41:34 10° NNW 06:44:26 37° NW 06:44:26 37° NW
CZ-4C R/B 4.4 06:44:17 10° WNW 06:46:57 15° NNW 06:49:55 10° N
Nimbus 7 Rocket 4.3 06:41:14 10° NNE 06:47:21 85° ESE 06:47:49 77° S
Meteor 1-11 4.4 06:56:29 60° ESE 06:56:57 62° E 07:02:41 10° NNE
Cosmos 2297 Rocket 4.4 06:56:04 13° W 06:58:32 16° NW 07:02:01 10° NNW
Cosmos 1937 Rocket 3.6 07:00:05 67° E 07:00:05 67° E 07:05:09 10° NNE
Aureole 1 Rocket 4.2 07:02:21 34° NNW 07:02:21 34° NNW 07:05:03 10° N
Meteor 1-21 Rocket 4.3 07:01:39 61° W 07:01:54 62° W 07:07:34 10° N
Cosmos 2219 3.6 07:01:34 50° W 07:02:02 51° WNW 07:07:31 10° NNE
H-2A R/B 4.0 07:00:30 10° NNW 07:03:04 19° WNW 07:03:04 19° WNW
ADEOS II 4.3 07:02:02 10° ENE 07:04:53 15° E 07:06:30 13° ESE
Cosmos 1898 Rocket 3.4 07:05:14 77° NW 07:05:14 77° NW 07:10:17 10° NNE
Cosmos 1975 Rocket 3.6 07:05:59 56° N 07:05:59 56° N 07:09:31 10° N
Cosmos 2327 Rocket 4.4 07:09:39 60° WSW 07:10:14 64° W 07:16:17 10° N
Cosmos 292 Rocket 4.4 07:13:40 45° WNW 07:13:40 45° WNW 07:18:02 10° N
Resurs 1-4 Rocket 3.1 07:16:20 10° NNE 07:21:08 35° E 07:22:09 32° ESE
Cosmos 1455 Rocket 3.9 07:17:41 10° NNW 07:21:03 43° NW 07:21:03 43° NW
Helios 1A Rocket 3.7 07:23:30 44° NNW 07:23:30 44° NNW 07:26:11 10° NNW
SL-8 Rocket 3.8 07:21:49 64° SSW 07:22:51 86° W 07:29:04 10° N
NOSS 3-2 (A) 4.0 07:21:44 35° WNW 07:22:57 39° NW 07:28:29 10° NNE
Cosmos 1461 3.7 07:28:39 42° NNW 07:28:39 42° NNW 07:31:48 10° NNE
NOSS 3-2 (C) 2.9 07:28:54 72° WSW 07:29:25 80° NW 07:35:17 10° NNE
Cosmos 2263 Rocket 2.8 07:28:45 40° W 07:29:37 43° WNW 07:34:55 10° N
Meteor 2-1 Rocket 4.2 07:28:43 10° NNW 07:34:36 77° W 07:35:31 63° SSW
Cosmos 1536 Rocket 4.0 07:34:38 53° ESE 07:34:49 53° E 07:39:08 10° NNE
USA 267 4.2 07:32:12 10° ENE 07:37:57 32° SE 07:39:25 29° SSE
Cosmos 1680 Rocket 3.6 07:36:27 10° NNW 07:41:40 73° ENE 07:43:08 47° SE
Cosmos 1959 Rocket 4.4 07:41:07 54° SSW 07:42:37 77° W 07:48:58 10° N
Cosmos 2112 Rocket 4.3 07:39:14 10° NNW 07:44:23 64° ENE 07:46:20 37° SE
Cosmos 1844 Rocket 3.1 07:47:26 42° SSE 07:48:49 52° ESE 07:54:13 10° NNE
Cosmos 1818 3.6 07:43:30 10° NNW 07:49:00 81° ENE 07:51:34 32° SE
Cosmos 1869 4.1 07:46:49 10° NNW 07:49:24 40° NW 07:49:24 40° NW
Cosmos 1437 Rocket 2.9 07:54:44 62° E 07:54:44 62° E 07:58:25 10° NNE
Delta 2 Rocket 4.5 07:57:55 30° ESE 07:57:55 30° ESE 08:00:12 10° ESE
COBE Rocket 4.3 07:53:00 10° N 07:58:01 53° WNW 07:58:51 48° WSW
Meteor 1-27 4.5 07:52:36 10° N 07:58:24 68° E 08:01:20 30° SSE
IDEFIX/ARIANE 42P 2.7 08:02:15 10° N 08:07:25 62° WNW 08:08:40 47° SW
SL-16 R/B 3.5 08:10:07 10° NW 08:13:49 23° W 08:13:49 23° W
CZ-2C R/B 3.0 08:11:55 10° NNE 08:17:17 87° WNW 08:19:01 43° SSW
MOZ.5/SAFIR/RUBIN 5/SL-8 4.5 08:17:56 35° W 08:17:56 35° W 08:22:03 10° NNW
Cosmos 1603 4.0 08:14:05 10° NNW 08:19:50 69° ENE 08:25:30 10° SSE
CZ-2C R/B 2.5 08:17:59 37° S 08:20:05 75° WSW 08:25:28 10° NNW
Cosmos 1125 Rocket 4.2 08:21:20 27° SSE 08:23:55 49° ESE 08:29:00 10° NNE
Cosmos 1892 Rocket 4.2 08:22:13 29° SSE 08:24:09 50° E 08:28:25 10° NNE
GRACE-FO 1 4.3 08:24:45 73° WSW 08:24:54 75° W 08:28:27 10° N
CZ-2D R/B 2.2 08:19:50 10° N 08:25:05 62° WNW 08:26:55 39° SW
GRACE-FO 2 4.3 08:25:11 72° WSW 08:25:20 74° W 08:28:52 10° N
MSX 4.1 08:20:26 10° N 08:25:59 52° WNW 08:28:09 34° SW
Cosmos 1821 Rocket 4.2 08:25:04 36° SW 08:27:19 54° W 08:33:19 10° N
Cosmos 1943 3.1 08:22:56 10° NNW 08:28:29 62° WSW 08:31:17 29° S
Cosmos 2228 3.8 08:26:05 10° NNW 08:29:58 34° W 08:30:02 34° W
Cosmos 494 Rocket 4.1 08:24:52 10° NNW 08:30:07 75° ENE 08:35:05 11° SSE
FENGYUN 3A 3.6 08:26:24 10° NNE 08:31:48 84° WNW 08:34:20 33° SSW
Cosmos 1867 4.0 08:30:15 32° WSW 08:32:26 51° NW 08:37:47 10° NNE
H-2A R/B 4.5 08:31:27 10° N 08:34:53 28° WNW 08:35:24 27° W
USA 238 DEB 3.9 08:32:42 29° WSW 08:35:47 54° NW 08:42:16 10° NNE
USA 238 3.9 08:32:45 29° WSW 08:35:49 54° NW 08:42:19 10° NNE
SL-24 DEB 4.1 08:32:12 10° N 08:36:46 89° E 08:38:53 32° S
AQUA 3.7 08:34:07 10° NNE 08:38:51 85° WNW 08:40:58 33° SSW
Cosmos 1812 3.7 08:39:29 10° N 08:42:52 40° E 08:45:49 13° SSE
ADEOS II 2.2 08:39:41 10° N 08:44:52 61° WNW 08:47:23 30° SW
ALOS 2.2 08:40:42 10° NNE 08:45:20 80° ESE 08:47:51 27° S
Orbus 7S? 3.5 08:45:03 10° NW 08:48:19 82° SW 08:54:53 10° SE
USA 81 4.4 08:47:07 10° N 08:52:22 66° E 08:57:35 10° SSE
SAR-Lupe-4 3.6 08:50:39 10° NNE 08:54:13 76° ESE 08:55:52 29° S
ATLAS 5 CENTAUR R/B 2.2 08:56:45 20° SSE 08:58:14 30° ESE 09:01:13 10° NE
Resurs 1-4 Rocket 3.3 08:56:21 10° N 09:00:44 27° WNW 09:03:14 19° WSW
Cosmos 1934 Rocket 4.1 08:59:41 20° SSW 09:04:10 67° W 09:10:32 10° N
Cosmos 921 Rocket 3.2 09:00:39 10° NNW 09:04:41 45° W 09:06:56 23° SSW
Cosmos 1844 4.4 09:01:41 22° WSW 09:04:57 42° WNW 09:10:26 10° N
SL-16 R/B 2.5 08:59:58 10° S 09:06:13 69° WSW 09:12:27 10° NNW
Cosmos 2123 Rocket 3.9 09:01:37 10° N 09:07:47 74° W 09:13:57 10° S
IRAS Rocket 4.2 09:02:23 10° NNE 09:07:53 83° WNW 09:12:11 17° SSW
Cosmos 1606 Rocket 4.2 09:05:09 10° NNW 09:09:14 37° W 09:11:20 23° SW
NOSS 2-2 (C) 3.2 09:07:46 25° SSW 09:09:32 57° ESE 09:12:36 10° NE
Meteor 1-28 Rocket 3.6 09:10:16 27° SW 09:11:35 38° W 09:14:55 10° NNW
Cosmos 2058 2.8 09:10:09 22° SSW 09:12:41 68° W 09:16:44 10° N
Iridium 2 4.0 09:14:59 23° W 09:14:59 23° W 09:16:58 10° NNW
CZ-4 R/B 4.2 09:12:49 10° NNE 09:17:45 69° ESE 09:22:42 10° S
Cosmos-2242 4.5 09:15:01 10° N 09:19:02 38° ENE 09:23:01 10° SSE
NOSS 2-2 (D) 3.7 09:16:45 17° S 09:19:12 42° ESE 09:22:13 10° NE
Cosmos 2298 Rocket 4.0 09:16:15 15° SSW 09:20:40 89° ESE 09:26:01 10° NNE
USA 267 3.5 09:14:42 10° NE 09:21:09 65° NW 09:26:45 14° WSW
Cosmos 1726 Rocket 4.3 09:20:16 10° NNW 09:24:16 34° W 09:27:08 16° SSW
NOSS 2-3 (E) 3.5 09:22:56 16° SSW 09:25:40 57° ESE 09:29:22 10° NE
Cosmos 1238 Rocket 2.0 09:23:56 10° N 09:27:10 81° W 09:30:06 10° S
NOAA 11 4.2 09:25:15 10° NNE 09:30:46 89° WNW 09:36:13 10° SSW
METEOR-M 4.1 09:25:32 10° N 09:30:54 80° WNW 09:36:14 10° SSW
NOSS 2-3 (C) 3.3 09:28:26 15° SSW 09:31:17 67° ESE 09:35:00 10° NE
Cosmos 1844 Rocket 4.2 09:29:05 11° WSW 09:32:59 21° NW 09:37:11 10° N
Delta 2 Rocket 3.9 09:33:16 12° W 09:36:38 35° SSW 09:40:36 10° SE
Cosmos 724 4.2 09:34:43 10° NW 09:40:28 65° WSW 09:46:16 10° SSE
H-2A R/B 3.7 09:36:42 10° NNE 09:41:25 32° E 09:46:00 10° SSE
SEDSat Delta rocket 3.6 09:39:27 13° WSW 09:42:28 32° S 09:46:06 10° ESE
IRS-1D 3.7 09:41:04 10° NNE 09:46:14 76° ESE 09:51:15 10° S
BREEZE-M DEB (TANK) 4.3 09:46:25 10° W 09:49:18 21° SSW 09:55:38 10° SSE
Cosmos 1812 Rocket 4.4 09:46:32 10° N 09:50:48 54° E 09:55:05 10° SSE
Cosmos 220 Rocket 4.1 09:47:59 10° NNW 09:52:07 78° ENE 09:56:13 10° SSE
CZ-2C R/B 2.3 09:48:59 10° N 09:53:31 69° WNW 09:58:05 10° SSW
USA 234 4.5 09:47:39 10° ESE 09:53:51 47° NE 10:00:03 10° NW
Cosmos 1602 Rocket 3.6 09:49:45 10° S 09:54:12 87° W 09:58:40 10° N
Envisat 3.5 09:50:34 10° N 09:55:21 43° WNW 10:00:07 10° SW
Cosmos 1544 4.3 09:55:25 10° WSW 09:56:55 15° WNW 09:58:30 10° NW
Lacrosse 5 3.3 09:52:36 10° S 09:57:00 31° ESE 10:01:25 10° ENE
Cosmos 2278 Rocket 3.0 09:52:10 10° S 09:57:37 50° ESE 10:03:05 10° NNE
Cosmos 1271 Rocket 2.5 09:56:48 10° S 10:00:22 84° W 10:03:58 10° N
Genesis I 3.2 09:58:32 10° NNW 10:02:10 77° ENE 10:05:46 10° SE
Cosmos 1862 3.1 10:01:26 10° S 10:05:14 82° W 10:09:03 10° N
Cosmos 2058 Rocket 4.3 10:01:45 10° NW 10:05:15 23° W 10:08:44 10° SW
Cosmos 1758 Rocket 3.8 10:02:24 10° SSW 10:06:43 52° W 10:11:02 10° N
Cosmos 1484 Rocket 4.0 10:06:06 10° NNE 10:09:43 42° E 10:13:19 10° S
Cosmos 2100 Rocket 4.1 10:05:24 10° S 10:11:36 89° ESE 10:17:48 10° N
Meteor 2-2 Rocket 4.3 10:06:34 10° NNW 10:12:09 66° W 10:17:43 10° S
